QPF
0.00 0.00 0.00 0.00 0.00 0.00 0.00 0.00 0.00 0.01 0.02 0.02 0.02 0.01 0.00 0.00 0.00 0.00 0.00 0.01 0.03 0.04 0.03 0.02 0.01 0.00 0.00 0.00 0.00 0.00 0.00 0.00 0.00 0.00 0.00 0.00 0.00 0.00 0.00 0.00 0.00 0.00 0.00
0.00 0.00 0.00 0.00 0.00 0.00 0.00 0.00 0.00 0.00 0.01 0.02 0.01 0.01 0.00 0.00 0.00 0.00 0.01 0.02 0.03 0.03 0.02 0.01 0.00 0.00 0.00 0.00 0.00 0.00 0.00 0.00 0.00 0.00 0.00 0.00 0.00 0.00 0.00 0.00 0.00 0.00 0.00
0.00 0.00 0.00 0.00 0.00 0.00 0.00 0.00 0.00 0.00 0.01 0.01 0.01 0.00 0.00 0.00 0.00 0.01 0.02 0.02 0.02 0.02 0.01 0.00 0.00 0.00 0.00 0.00 0.00 0.00 0.00 0.00 0.00 0.00 0.00 0.00 0.00 0.00 0.00 0.00 0.00 0.00 0.00
0.00 0.00 0.00 0.00 0.00 0.00 0.00 0.00 0.00 0.01 0.01 0.00 0.00 0.00 0.00 0.00 0.01 0.02 0.02 0.02 0.01 0.00 0.00 0.00 0.00 0.00 0.00 0.00 0.00 0.00 0.00 0.00 0.00 0.00 0.00 0.00 0.00 0.00 0.00 0.00 0.00 0.00 0.01
0.00 0.00 0.00 0.00 0.00 0.00 0.00 0.00 0.00 0.01 0.00 0.00 0.00 0.00 0.00 0.00 0.01 0.01 0.01 0.01 0.00 0.00 0.00 0.00 0.00 0.00 0.00 0.00 0.00 0.00 0.00 0.00 0.00 0.00 0.00 0.00 0.00 0.00 0.00 0.01 0.01 0.01 0.01
0.00 0.00 0.00 0.00 0.00 0.00 0.00 0.00 0.00 0.00 0.00 0.00 0.00 0.00 0.00 0.00 0.00 0.00 0.00 0.00 0.00 0.00 0.00 0.00 0.00 0.00 0.00 0.00 0.00 0.00 0.00 0.00 0.00 0.00 0.00 0.00 0.00 0.00 0.01 0.01 0.01 0.02 0.03
0.00 0.00 0.00 0.00 0.00 0.00 0.00 0.00 0.00 0.00 0.00 0.00 0.00 0.00 0.00 0.00 0.00 0.00 0.00 0.00 0.00 0.00 0.00 0.00 0.00 0.00 0.00 0.00 0.00 0.00 0.00 0.00 0.00 0.00 0.00 0.00 0.00 0.00 0.01 0.02 0.02 0.02 0.02
0.00 0.00 0.00 0.00 0.00 0.00 0.00 0.00 0.00 0.00 0.00 0.00 0.00 0.00 0.00 0.00 0.00 0.00 0.00 0.00 0.00 0.00 0.00 0.00 0.00 0.00 0.00 0.00 0.00 0.00 0.00 0.00 0.00 0.00 0.00 0.00 0.00 0.01 0.02 0.02 0.02 0.02 0.01
0.00 0.00 0.00 0.00 0.00 0.00 0.00 0.00 0.00 0.00 0.00 0.00 0.00 0.00 0.00 0.00 0.00 0.00 0.00 0.00 0.00 0.00 0.00 0.00 0.00 0.00 0.00 0.00 0.00 0.00 0.00 0.00 0.00 0.00 0.00 0.00 0.01 0.02 0.03 0.02 0.01 0.01 0.01
0.00 0.00 0.00 0.00 0.00 0.00 0.00 0.00 0.00 0.00 0.00 0.00 0.00 0.00 0.00 0.00 0.00 0.00 0.00 0.00 0.00 0.00 0.00 0.00 0.00 0.00 0.00 0.00 0.00 0.00 0.00 0.00 0.00 0.00 0.00 0.00 0.01 0.02 0.02 0.01 0.01 0.00 0.00
0.00 0.00 0.00 0.00 0.00 0.00 0.00 0.00 0.00 0.00 0.00 0.00 0.00 0.00 0.00 0.00 0.00 0.00 0.00 0.00 0.00 0.00 0.00 0.00 0.00 0.00 0.00 0.00 0.00 0.00 0.00 0.00 0.00 0.00 0.00 0.00 0.01 0.01 0.01 0.00 0.00 0.00 0.00
0.00 0.00 0.00 0.00 0.00 0.00 0.00 0.00 0.00 0.00 0.00 0.00 0.00 0.00 0.00 0.00 0.00 0.00 0.00 0.00 0.00 0.00 0.00 0.00 0.00 0.00 0.00 0.00 0.00 0.00 0.00 0.00 0.00 0.00 0.00 0.00 0.00 0.00 0.00 0.00 0.00 0.00 0.00
0.00 0.00 0.00 0.00 0.00 0.00 0.00 0.00 0.00 0.00 0.00 0.00 0.00 0.00 0.00 0.00 0.00 0.00 0.00 0.00 0.00 0.00 0.00 0.00 0.00 0.00 0.00 0.00 0.00 0.00 0.00 0.00 0.00 0.00 0.00 0.00 0.00 0.00 0.00 0.00 0.00 0.00 0.00
0.00 0.00 0.00 0.00 0.00 0.00 0.00 0.00 0.00 0.00 0.00 0.00 0.00 0.00 0.00 0.00 0.00 0.00 0.00 0.00 0.00 0.00 0.00 0.00 0.00 0.00 0.00 0.00 0.00 0.00 0.00 0.00 0.00 0.00 0.00 0.00 0.00 0.00 0.00 0.00 0.00 0.00 0.00
0.00 0.00 0.00 0.00 0.00 0.00 0.00 0.00 0.00 0.00 0.00 0.00 0.00 0.00 0.00 0.00 0.00 0.00 0.00 0.00 0.00 0.00 0.00 0.00 0.00 0.00 0.00 0.00 0.00 0.00 0.00 0.00 0.00 0.00 0.00 0.00 0.00 0.00 0.00 0.00 0.00 0.00 0.00
0.00 0.00 0.00 0.00 0.00 0.00 0.00 0.00 0.00 0.00 0.00 0.00 0.00 0.00 0.00 0.00 0.00 0.00 0.00 0.00 0.00 0.00 0.00 0.00 0.00 0.00 0.00 0.00 0.00 0.00 0.00 0.00 0.00 0.00 0.00 0.00 0.00 0.00 0.00 0.00 0.00 0.00 0.00
0.00 0.00 0.00 0.00 0.00 0.00 0.00 0.00 0.00 0.00 0.00 0.00 0.00 0.00 0.00 0.00 0.00 0.00 0.00 0.00 0.00 0.00 0.00 0.00 0.00 0.00 0.00 0.00 0.00 0.00 0.00 0.00 0.00 0.00 0.00 0.00 0.00 0.00 0.00 0.00 0.00 0.00 0.00
0.00 0.00 0.01 0.00 0.00 0.00 0.00 0.00 0.00 0.00 0.00 0.00 0.00 0.00 0.00 0.00 0.00 0.00 0.00 0.00 0.00 0.00 0.00 0.01 0.00 0.00 0.00 0.00 0.00 0.00 0.00 0.00 0.00 0.00 0.00 0.00 0.00 0.00 0.00 0.00 0.00 0.00 0.00
0.00 0.00 0.00 0.00 0.00 0.00 0.00 0.01 0.01 0.01 0.01 0.01 0.01 0.01 0.01 0.01 0.01 0.01 0.00 0.00 0.00 0.01 0.01 0.02 0.02 0.01 0.01 0.00 0.00 0.00 0.00 0.00 0.00 0.00 0.00 0.00 0.00 0.00 0.00 0.00 0.00 0.00 0.00
0.00 0.00 0.00 0.00 0.00 0.00 0.01 0.01 0.01 0.01 0.01 0.02 0.02 0.02 0.03 0.03 0.04 0.03 0.02 0.01 0.02 0.02 0.02 0.02 0.03 0.03 0.02 0.02 0.01 0.00 0.00 0.00 0.00 0.00 0.00 0.00 0.00 0.00 0.00 0.00 0.00 0.00 0.00
0.00 0.00 0.00 0.00 0.00 0.00 0.00 0.01 0.01 0.01 0.02 0.02 0.02 0.03 0.03 0.04 0.05 0.05 0.05 0.04 0.04 0.04 0.04 0.05 0.06 0.06 0.05 0.04 0.03 0.01 0.00 0.00 0.00 0.00 0.00 0.00 0.00 0.00 0.00 0.00 0.00 0.00 0.00
0.00 0.00 0.00 0.00 0.00 0.00 0.00 0.00 0.01 0.01 0.01 0.02 0.02 0.02 0.03 0.04 0.05 0.05 0.05 0.05 0.06 0.07 0.07 0.07 0.07 0.06 0.06 0.07 0.04 0.03 0.01 0.00 0.00 0.00 0.00 0.00 0.00 0.00 0.00 0.00 0.00 0.00 0.00
0.00 0.00 0.00 0.00 0.00 0.00 0.00 0.00 0.00 0.00 0.00 0.01 0.01 0.01 0.01 0.02 0.04 0.05 0.05 0.05 0.06 0.08 0.08 0.09 0.10 0.10 0.10 0.10 0.08 0.06 0.02 0.00 0.01 0.00 0.01 0.01 0.00 0.00 0.00 0.01 0.00 0.00 0.00
0.00 0.00 0.00 0.00 0.00 0.00 0.00 0.00 0.00 0.00 0.00 0.00 0.00 0.01 0.01 0.02 0.02 0.03 0.04 0.05 0.06 0.07 0.08 0.09 0.12 0.13 0.13 0.10 0.09 0.07 0.05 0.03 0.02 0.01 0.01 0.02 0.02 0.01 0.01 0.01 0.01 0.01 0.00
0.00 0.00 0.00 0.00 0.00 0.00 0.00 0.00 0.00 0.00 0.00 0.00 0.00 0.00 0.00 0.01 0.01 0.02 0.03 0.04 0.04 0.05 0.07 0.09 0.12 0.13 0.13 0.12 0.11 0.11 0.11 0.07 0.04 0.03 0.03 0.02 0.03 0.03 0.02 0.01 0.01 0.01 0.01
0.00 0.00 0.00 0.00 0.00 0.00 0.00 0.00 0.00 0.00 0.00 0.00 0.00 0.00 0.00 0.00 0.00 0.01 0.02 0.03 0.04 0.05 0.06 0.09 0.12 0.14 0.14 0.13 0.12 0.12 0.13 0.11 0.08 0.07 0.07 0.06 0.05 0.05 0.04 0.03 0.02 0.02 0.02
MSLP
1016.09 1015.88 1015.77 1015.83 1016.02 1016.31 1016.65 1016.97 1017.23 1017.41 1017.53 1017.60 1017.67 1017.78 1017.92 1018.10 1018.30 1018.48 1018.62 1018.69 1018.72 1018.70 1018.67 1018.66 1018.67 1018.73 1018.82 1018.93 1019.04 1019.14 1019.22 1019.30 1019.36 1019.41 1019.46 1019.49 1019.50 1019.47 1019.39 1019.28 1019.14 1019.00 1018.87
1015.88 1015.73 1015.71 1015.84 1016.10 1016.44 1016.79 1017.12 1017.37 1017.54 1017.65 1017.73 1017.83 1017.97 1018.16 1018.38 1018.61 1018.81 1018.96 1019.05 1019.09 1019.09 1019.10 1019.12 1019.17 1019.25 1019.35 1019.45 1019.53 1019.58 1019.61 1019.62 1019.63 1019.65 1019.68 1019.70 1019.70 1019.68 1019.61 1019.49 1019.35 1019.20 1019.07
1015.60 1015.53 1015.59 1015.80 1016.13 1016.52 1016.92 1017.26 1017.52 1017.70 1017.82 1017.91 1018.04 1018.20 1018.42 1018.66 1018.91 1019.12 1019.27 1019.35 1019.39 1019.41 1019.42 1019.47 1019.54 1019.65 1019.75 1019.84 1019.89 1019.91 1019.90 1019.87 1019.85 1019.84 1019.85 1019.87 1019.89 1019.87 1019.81 1019.71 1019.57 1019.43 1019.30
1015.32 1015.32 1015.45 1015.74 1016.14 1016.59 1017.03 1017.41 1017.68 1017.87 1018.00 1018.11 1018.25 1018.44 1018.67 1018.93 1019.17 1019.37 1019.51 1019.58 1019.61 1019.61 1019.63 1019.69 1019.78 1019.89 1020.00 1020.09 1020.13 1020.13 1020.10 1020.05 1020.01 1019.99 1020.00 1020.03 1020.05 1020.04 1020.00 1019.91 1019.79 1019.66 1019.54
1015.13 1015.18 1015.37 1015.72 1016.18 1016.68 1017.15 1017.55 1017.84 1018.04 1018.17 1018.30 1018.45 1018.65 1018.89 1019.14 1019.38 1019.57 1019.68 1019.73 1019.74 1019.74 1019.75 1019.81 1019.90 1020.02 1020.14 1020.23 1020.28 1020.27 1020.23 1020.18 1020.14 1020.12 1020.13 1020.17 1020.20 1020.20 1020.17 1020.09 1019.99 1019.88 1019.78
1015.09 1015.18 1015.41 1015.80 1016.29 1016.81 1017.29 1017.69 1017.99 1018.18 1018.33 1018.45 1018.61 1018.82 1019.06 1019.31 1019.54 1019.72 1019.82 1019.85 1019.84 1019.83 1019.84 1019.89 1019.98 1020.11 1020.23 1020.33 1020.38 1020.38 1020.35 1020.30 1020.27 1020.25 1020.27 1020.30 1020.33 1020.34 1020.32 1020.25 1020.17 1020.08 1020.01
1015.24 1015.35 1015.60 1015.99 1016.48 1016.99 1017.46 1017.85 1018.13 1018.31 1018.45 1018.58 1018.74 1018.96 1019.20 1019.46 1019.69 1019.85 1019.95 1019.97 1019.96 1019.94 1019.94 1019.99 1020.08 1020.21 1020.33 1020.43 1020.48 1020.49 1020.47 1020.44 1020.41 1020.40 1020.41 1020.44 1020.47 1020.48 1020.45 1020.40 1020.33 1020.26 1020.22
1015.57 1015.67 1015.92 1016.29 1016.75 1017.23 1017.66 1018.01 1018.25 1018.43 1018.56 1018.69 1018.86 1019.08 1019.34 1019.60 1019.84 1020.01 1020.11 1020.15 1020.14 1020.12 1020.12 1020.17 1020.25 1020.37 1020.48 1020.58 1020.63 1020.65 1020.63 1020.59 1020.56 1020.56 1020.57 1020.59 1020.61 1020.61 1020.59 1020.54 1020.49 1020.45 1020.43
1016.00 1016.10 1016.33 1016.66 1017.07 1017.49 1017.86 1018.16 1018.38 1018.53 1018.65 1018.80 1018.98 1019.22 1019.49 1019.77 1020.02 1020.21 1020.33 1020.38 1020.38 1020.37 1020.38 1020.42 1020.50 1020.60 1020.70 1020.78 1020.83 1020.83 1020.81 1020.77 1020.73 1020.72 1020.72 1020.73 1020.75 1020.75 1020.73 1020.70 1020.66 1020.64 1020.65
1016.46 1016.55 1016.75 1017.04 1017.38 1017.73 1018.05 1018.30 1018.48 1018.62 1018.75 1018.91 1019.11 1019.37 1019.66 1019.96 1020.22 1020.43 1020.57 1020.63 1020.66 1020.66 1020.68 1020.72 1020.79 1020.88 1020.96 1021.02 1021.04 1021.03 1020.99 1020.94 1020.89 1020.87 1020.86 1020.87 1020.88 1020.88 1020.88 1020.87 1020.86 1020.86 1020.90
1016.83 1016.93 1017.10 1017.35 1017.63 1017.92 1018.18 1018.39 1018.55 1018.69 1018.84 1019.01 1019.24 1019.52 1019.83 1020.14 1020.42 1020.63 1020.78 1020.86 1020.90 1020.92 1020.95 1021.00 1021.06 1021.13 1021.20 1021.23 1021.24 1021.20 1021.15 1021.08 1021.02 1020.98 1020.97 1020.97 1020.99 1021.01 1021.03 1021.05 1021.07 1021.10 1021.17
1017.06 1017.16 1017.32 1017.53 1017.77 1018.01 1018.23 1018.41 1018.57 1018.72 1018.89 1019.09 1019.35 1019.64 1019.96 1020.27 1020.54 1020.76 1020.91 1021.00 1021.05 1021.08 1021.12 1021.17 1021.24 1021.30 1021.36 1021.38 1021.37 1021.32 1021.25 1021.17 1021.10 1021.05 1021.04 1021.05 1021.08 1021.12 1021.17 1021.22 1021.28 1021.34 1021.43
1017.11 1017.23 1017.39 1017.58 1017.78 1017.99 1018.18 1018.35 1018.52 1018.69 1018.88 1019.11 1019.38 1019.69 1020.00 1020.30 1020.55 1020.75 1020.89 1020.98 1021.04 1021.09 1021.14 1021.20 1021.27 1021.34 1021.40 1021.42 1021.40 1021.35 1021.28 1021.20 1021.13 1021.08 1021.07 1021.09 1021.13 1021.20 1021.28 1021.37 1021.46 1021.56 1021.66
1017.00 1017.14 1017.30 1017.48 1017.66 1017.85 1018.02 1018.20 1018.37 1018.57 1018.79 1019.04 1019.32 1019.62 1019.92 1020.19 1020.42 1020.59 1020.71 1020.80 1020.86 1020.92 1020.98 1021.06 1021.15 1021.24 1021.31 1021.35 1021.35 1021.31 1021.25 1021.18 1021.11 1021.07 1021.06 1021.09 1021.15 1021.24 1021.35 1021.47 1021.59 1021.72 1021.84
1016.78 1016.94 1017.10 1017.27 1017.44 1017.61 1017.78 1017.96 1018.15 1018.36 1018.60 1018.86 1019.14 1019.42 1019.69 1019.93 1020.12 1020.27 1020.38 1020.45 1020.52 1020.60 1020.69 1020.79 1020.91 1021.03 1021.12 1021.19 1021.22 1021.21 1021.18 1021.13 1021.08 1021.05 1021.04 1021.08 1021.14 1021.24 1021.37 1021.50 1021.65 1021.80 1021.93
1016.53 1016.69 1016.85 1017.01 1017.16 1017.31 1017.48 1017.66 1017.86 1018.08 1018.32 1018.58 1018.84 1019.10 1019.33 1019.53 1019.69 1019.82 1019.92 1020.00 1020.08 1020.18 1020.29 1020.43 1020.58 1020.74 1020.87 1020.98 1021.05 1021.09 1021.09 1021.06 1021.04 1021.01 1021.01 1021.04 1021.11 1021.20 1021.33 1021.47 1021.63 1021.78 1021.93
1016.31 1016.47 1016.61 1016.74 1016.87 1017.01 1017.17 1017.34 1017.53 1017.75 1017.98 1018.22 1018.45 1018.67 1018.87 1019.04 1019.18 1019.30 1019.40 1019.50 1019.60 1019.73 1019.88 1020.05 1020.24 1020.42 1020.60 1020.75 1020.87 1020.95 1020.99 1021.00 1020.99 1020.98 1020.98 1021.00 1021.05 1021.12 1021.23 1021.37 1021.52 1021.69 1021.85
1016.19 1016.31 1016.42 1016.52 1016.62 1016.74 1016.88 1017.04 1017.22 1017.42 1017.63 1017.83 1018.02 1018.20 1018.36 1018.50 1018.63 1018.75 1018.87 1018.99 1019.14 1019.30 1019.48 1019.69 1019.90 1020.12 1020.33 1020.52 1020.67 1020.79 1020.87 1020.92 1020.93 1020.93 1020.93 1020.93 1020.95 1021.00 1021.08 1021.20 1021.35 1021.51 1021.68
1016.17 1016.25 1016.31 1016.37 1016.45 1016.54 1016.66 1016.81 1016.97 1017.13 1017.29 1017.44 1017.58 1017.71 1017.83 1017.95 1018.07 1018.21 1018.35 1018.52 1018.70 1018.90 1019.12 1019.35 1019.58 1019.82 1020.05 1020.26 1020.45 1020.60 1020.72 1020.79 1020.83 1020.83 1020.82 1020.81 1020.80 1020.83 1020.88 1020.98 1021.11 1021.28 1021.46
1016.24 1016.27 1016.29 1016.32 1016.36 1016.44 1016.54 1016.66 1016.79 1016.91 1017.02 1017.11 1017.19 1017.26 1017.33 1017.42 1017.54 1017.68 1017.86 1018.06 1018.28 1018.51 1018.75 1019.00 1019.24 1019.49 1019.72 1019.95 1020.15 1020.33 1020.47 1020.57 1020.63 1020.65 1020.64 1020.61 1020.59 1020.59 1020.63 1020.71 1020.84 1021.01 1021.21
1016.38 1016.37 1016.35 1016.34 1016.37 1016.43 1016.51 1016.61 1016.71 1016.78 1016.83 1016.85 1016.86 1016.86 1016.88 1016.93 1017.03 1017.17 1017.36 1017.59 1017.83 1018.09 1018.35 1018.60 1018.84 1019.08 1019.32 1019.54 1019.76 1019.95 1020.12 1020.24 1020.32 1020.35 1020.35 1020.32 1020.30 1020.29 1020.32 1020.39 1020.52 1020.70 1020.93
1016.58 1016.53 1016.48 1016.46 1016.47 1016.52 1016.60 1016.67 1016.73 1016.76 1016.74 1016.69 1016.61 1016.53 1016.48 1016.48 1016.54 1016.67 1016.85 1017.08 1017.33 1017.60 1017.86 1018.10 1018.34 1018.57 1018.80 1019.02 1019.24 1019.45 1019.63 1019.77 1019.87 1019.93 1019.94 1019.93 1019.92 1019.92 1019.96 1020.04 1020.19 1020.38 1020.63
1016.82 1016.75 1016.69 1016.66 1016.67 1016.71 1016.78 1016.84 1016.86 1016.84 1016.76 1016.62 1016.46 1016.29 1016.16 1016.08 1016.08 1016.17 1016.32 1016.53 1016.77 1017.02 1017.27 1017.51 1017.73 1017.95 1018.17 1018.39 1018.61 1018.83 1019.02 1019.19 1019.32 1019.40 1019.45 1019.46 1019.47 1019.50 1019.56 1019.67 1019.83 1020.05 1020.32
1017.10 1017.04 1016.98 1016.95 1016.96 1017.00 1017.05 1017.09 1017.08 1017.01 1016.86 1016.65 1016.40 1016.14 1015.92 1015.76 1015.68 1015.69 1015.79 1015.95 1016.16 1016.38 1016.61 1016.83 1017.05 1017.27 1017.48 1017.71 1017.93 1018.16 1018.37 1018.56 1018.71 1018.82 1018.90 1018.95 1019.00 1019.06 1019.15 1019.29 1019.48 1019.72 1020.01
1017.44 1017.41 1017.36 1017.33 1017.33 1017.36 1017.39 1017.40 1017.36 1017.25 1017.05 1016.77 1016.44 1016.10 1015.79 1015.53 1015.36 1015.29 1015.32 1015.41 1015.57 1015.75 1015.96 1016.17 1016.38 1016.59 1016.82 1017.05 1017.29 1017.53 1017.75 1017.96 1018.13 1018.26 1018.37 1018.45 1018.53 1018.63 1018.76 1018.93 1019.14 1019.41 1019.72
1017.85 1017.85 1017.82 1017.79 1017.77 1017.78 1017.78 1017.76 1017.69 1017.53 1017.29 1016.96 1016.58 1016.17 1015.78 1015.45 1015.19 1015.03 1014.97 1015.00 1015.09 1015.23 1015.41 1015.60 1015.81 1016.04 1016.28 1016.52 1016.77 1017.02 1017.25 1017.46 1017.64 1017.79 1017.91 1018.02 1018.13 1018.26 1018.42 1018.61 1018.86 1019.14 1019.45
Thickness
5762 5763 5762 5760 5758 5756 5755 5754 5752 5750 5748 5746 5744 5743 5741 5741 5740 5740 5739 5738 5737 5736 5735 5734 5734 5733 5732 5730 5729 5727 5726 5724 5722 5720 5719 5718 5717 5716 5714 5713 5712 5712 5711
5764 5762 5760 5759 5757 5755 5754 5752 5750 5748 5746 5744 5742 5741 5740 5739 5738 5738 5737 5736 5734 5733 5731 5730 5729 5728 5727 5725 5724 5722 5720 5718 5716 5715 5714 5713 5712 5711 5709 5708 5708 5707 5707
5762 5760 5758 5757 5755 5753 5751 5750 5748 5746 5744 5742 5740 5739 5738 5737 5736 5735 5734 5732 5731 5729 5728 5726 5725 5723 5722 5720 5719 5717 5715 5713 5712 5711 5709 5708 5708 5706 5705 5704 5704 5703 5702
5760 5757 5755 5754 5753 5751 5749 5748 5746 5744 5742 5740 5738 5737 5736 5735 5734 5732 5731 5729 5727 5725 5723 5722 5720 5719 5717 5716 5715 5713 5711 5709 5708 5707 5705 5704 5703 5702 5701 5700 5700 5699 5698
5756 5754 5752 5752 5750 5748 5747 5746 5744 5742 5740 5738 5736 5734 5733 5732 5730 5728 5726 5724 5722 5720 5719 5717 5715 5714 5713 5712 5710 5709 5707 5706 5705 5703 5701 5700 5699 5699 5698 5697 5696 5695 5694
5752 5750 5749 5748 5747 5746 5745 5743 5741 5739 5737 5735 5733 5731 5730 5728 5726 5724 5721 5719 5717 5716 5714 5713 5711 5710 5709 5708 5706 5705 5703 5702 5701 5699 5697 5696 5695 5695 5693 5692 5691 5690 5689
5748 5746 5745 5745 5744 5743 5742 5741 5739 5737 5734 5732 5730 5728 5726 5724 5722 5719 5717 5715 5713 5711 5710 5709 5707 5706 5705 5704 5702 5701 5699 5698 5696 5695 5693 5693 5692 5690 5689 5687 5686 5685 5684
5744 5743 5742 5742 5741 5740 5739 5737 5736 5734 5732 5729 5727 5725 5722 5720 5717 5715 5713 5711 5709 5707 5706 5705 5703 5702 5701 5700 5698 5696 5695 5694 5692 5690 5689 5688 5687 5686 5684 5682 5680 5679 5678
5740 5739 5739 5738 5738 5737 5736 5734 5732 5731 5729 5726 5724 5721 5719 5716 5713 5711 5709 5707 5705 5703 5702 5700 5699 5698 5697 5696 5694 5692 5691 5690 5688 5686 5685 5684 5683 5681 5679 5677 5675 5673 5672
5734 5735 5735 5735 5734 5733 5732 5730 5729 5727 5725 5723 5720 5718 5715 5712 5709 5707 5705 5703 5701 5699 5697 5696 5695 5694 5693 5692 5690 5688 5687 5686 5684 5683 5681 5680 5678 5676 5674 5672 5670 5668 5666
5727 5729 5731 5731 5730 5729 5728 5727 5725 5723 5721 5719 5716 5714 5711 5708 5705 5702 5700 5699 5697 5695 5693 5691 5690 5689 5688 5687 5686 5684 5682 5681 5679 5678 5677 5675 5673 5671 5668 5666 5664 5662 5660
5721 5724 5726 5726 5726 5725 5724 5723 5721 5719 5716 5714 5712 5709 5707 5704 5701 5698 5696 5695 5693 5691 5689 5687 5685 5684 5683 5682 5681 5679 5677 5675 5674 5673 5672 5670 5668 5666 5663 5660 5658 5656 5655
5719 5721 5722 5722 5722 5721 5721 5719 5718 5715 5713 5710 5708 5706 5703 5700 5697 5695 5693 5691 5689 5687 5685 5683 5681 5680 5678 5677 5675 5674 5672 5671 5669 5667 5666 5664 5662 5660 5657 5655 5652 5650 5648
5715 5717 5719 5719 5718 5718 5717 5717 5715 5712 5710 5707 5705 5702 5700 5697 5694 5692 5690 5688 5686 5684 5682 5680 5678 5676 5674 5672 5671 5669 5667 5666 5664 5662 5660 5658 5657 5655 5652 5649 5647 5645 5642
5712 5714 5716 5717 5716 5715 5713 5713 5711 5710 5707 5705 5703 5700 5698 5695 5692 5690 5687 5685 5683 5681 5679 5677 5675 5673 5671 5669 5667 5665 5663 5661 5659 5657 5655 5653 5651 5649 5646 5644 5641 5639 5637
5709 5711 5713 5714 5714 5713 5711 5709 5709 5707 5705 5703 5701 5699 5696 5694 5692 5689 5686 5684 5681 5679 5677 5675 5672 5670 5668 5665 5663 5661 5659 5657 5655 5652 5650 5648 5646 5643 5641 5638 5635 5633 5631
5705 5708 5709 5711 5711 5710 5709 5707 5706 5705 5703 5701 5699 5697 5695 5693 5690 5688 5686 5683 5680 5678 5675 5672 5668 5665 5663 5660 5658 5656 5654 5652 5650 5647 5645 5643 5640 5637 5635 5632 5630 5627 5624
5701 5703 5705 5707 5706 5706 5705 5704 5703 5702 5701 5699 5697 5696 5694 5692 5689 5686 5684 5682 5679 5676 5672 5668 5665 5661 5657 5655 5652 5650 5648 5646 5644 5641 5639 5636 5633 5631 5628 5626 5623 5620 5617
5696 5698 5699 5701 5701 5701 5701 5700 5700 5699 5698 5697 5695 5693 5692 5689 5687 5684 5682 5680 5676 5672 5669 5665 5662 5658 5654 5650 5647 5644 5642 5640 5638 5635 5632 5629 5626 5624 5621 5618 5616 5613 5610
5689 5691 5692 5694 5695 5695 5695 5694 5693 5693 5693 5692 5691 5690 5689 5686 5684 5681 5678 5675 5671 5668 5665 5661 5657 5653 5649 5645 5641 5637 5634 5632 5630 5628 5625 5622 5619 5616 5613 5610 5608 5605 5602
5679 5681 5683 5685 5686 5687 5687 5686 5685 5685 5686 5686 5686 5686 5684 5682 5680 5676 5674 5670 5667 5663 5661 5656 5651 5646 5641 5636 5629 5626 5624 5623 5621 5619 5617 5614 5611 5608 5605 5603 5600 5597 5594
5668 5671 5672 5675 5677 5679 5680 5681 5680 5680 5681 5681 5681 5680 5679 5676 5674 5671 5669 5665 5662 5658 5654 5650 5645 5640 5636 5628 5621 5614 5611 5612 5613 5612 5608 5606 5604 5601 5598 5595 5592 5589 5586
5658 5660 5664 5665 5668 5670 5673 5674 5674 5673 5673 5673 5673 5673 5673 5671 5669 5667 5664 5661 5657 5653 5649 5645 5640 5634 5629 5621 5616 5608 5602 5605 5603 5601 5599 5598 5596 5592 5590 5587 5584 5581 5578
5649 5652 5655 5657 5659 5661 5663 5664 5664 5663 5662 5663 5663 5664 5664 5664 5663 5661 5658 5655 5652 5648 5644 5640 5636 5630 5623 5616 5607 5603 5600 5598 5591 5591 5589 5586 5584 5583 5581 5578 5575 5572 5569
5640 5642 5645 5648 5649 5651 5652 5654 5654 5653 5653 5654 5654 5655 5655 5655 5654 5653 5651 5649 5646 5642 5639 5634 5629 5624 5617 5611 5603 5595 5589 5583 5580 5576 5578 5575 5570 5571 5570 5568 5566 5563 5561
5630 5632 5634 5637 5638 5639 5641 5642 5642 5642 5643 5643 5644 5644 5644 5644 5644 5644 5643 5641 5639 5635 5632 5628 5623 5617 5611 5605 5598 5589 5582 5575 5571 5565 5564 5562 5557 5557 5555 5554 5553 5552 5549